Home > Weather > Burnaby > Past weeks

Flag for Canada Weather for the Past 2 Weeks in Burnaby, British Columbia, Canada

Now
66 °F

Passing clouds.


Feels Like: 66 °F
Forecast: 54 / 69 °F
Wind: 7 mph from North

Location: Vancouver International Airport

Current Time: May 3, 2016 at 2:12:16 AM

Latest Report: May 3, 2016 at 1:00 AM


Visibility: 20 mi

Pressure: 29.92 "Hg

Humidity: 60%

Dew Point: 52 °F

Location of BurnabyLocation

Historic Weather in Burnaby — Graph

°F

Burnaby Temperature Yesterday

Maximum temperature yesterday: 75 °F (at 5:00 PM)
Minimum temperature yesterday: 52 °F (at 1:00 AM)
Average temperature yesterday: 63 °F

High & Low Weather Summary for the Past Weeks

 TemperatureHumidityPressure
High75 °F (May 2, 5:00 PM)100% (Apr 22, 3:00 AM)30.38 "Hg (Apr 22, 3:00 AM)
Low45 °F (Apr 18, 6:00 AM)49% (May 2, 11:00 PM)29.59 "Hg (Apr 22, 6:00 AM)
Average56 °F75%30.00 "Hg
* Reported Apr 18 1:00 AM — May 3 1:00 AM, Burnaby, Weather by CustomWeather, © 2016

Note: Actual official high and low records may vary slightly from our data, if they occured in-between our weather recording intervals... More about our weather records

Advertising

Burnaby Weather History for the Previous 24 Hours

Scroll right to see more
 ConditionsComfort  
Time TempWeatherWind HumidityBarometerVisibility
1:00 AM
Tue, May 3
66 °FPassing clouds.7 mph60%29.92 "Hg20 mi
12:00 AM68 °FPartly cloudy.10 mph53%29.93 "Hg20 mi
11:00 PM
Mon, May 2
68 °FPassing clouds.6 mph49%29.92 "Hg30 mi
10:00 PM61 °FPassing clouds.7 mph77%29.91 "Hg30 mi
9:00 PM66 °FBroken clouds.3 mph60%29.88 "Hg30 mi
8:00 PM66 °FPassing clouds.6 mph64%29.87 "Hg30 mi
7:00 PM70 °FScattered clouds.7 mph60%29.86 "Hg30 mi
6:00 PM73 °FScattered clouds.6 mph53%29.88 "Hg30 mi
5:00 PM75 °FPartly sunny.6 mph57%29.89 "Hg30 mi
4:00 PM68 °FScattered clouds.9 mph64%29.90 "Hg30 mi
3:00 PM70 °FPassing clouds.10 mph60%29.93 "Hg30 mi
2:00 PM73 °FPassing clouds.7 mph50%29.94 "Hg30 mi
1:00 PM68 °FPassing clouds.7 mph64%29.96 "Hg30 mi
12:00 PM68 °FSunny.7 mph56%29.98 "Hg30 mi
11:00 AM68 °FSunny.7 mph53%29.98 "Hg30 mi
10:00 AM66 °FSunny.6 mph60%29.98 "Hg30 mi
9:00 AM63 °FSunny.5 mph56%29.99 "Hg30 mi
8:00 AM59 °FSunny.5 mph68%29.99 "Hg30 mi
7:00 AM54 °FSunny.3 mph77%29.98 "Hg30 mi
6:00 AM52 °FClear.2 mph72%29.96 "Hg30 mi
5:00 AM52 °FClear.5 mph67%29.97 "Hg30 mi
4:00 AM52 °FClear.3 mph77%29.96 "Hg20 mi
3:00 AM54 °FClear.3 mph77%29.96 "Hg20 mi
2:00 AM52 °FClear.3 mph88%29.96 "Hg20 mi
Weather by CustomWeather, © 2016

See weather overviewHow to use our weather pages